sat.trackr.live / text

‹ back to catalog

ONEWEB-0658

NORAD 55819 · 2023-029Z

PAYLOAD ACTIVE UNKNOWN

§ Identity

Operator
Country
UK
Launch date
2023-03-09
Launch site
AFETR
Launch vehicle
Mass (kg)
RCS (m²)

Purposes: comms

External: N2YO · Heavens-Above · Gunter

§ Orbital elements

Epoch: 2026-05-25T04:07:04.238112Z

Period
109.11 min
Inclination
87.9158°
Eccentricity
0.0001382
Mean motion
13.19726458 rev/d
Perigee alt
1,184.7 km
Apogee alt
1,186.8 km
Semi-major
7,563.9 km
B*
2.7687e-4
RAAN
309.5367°
Arg perigee
91.4917°
Mean anomaly
268.6374°
Rev number
15,588

§ Raw data

ONEWEB-06581 55819U 23029Z   26145.17157683  .00000124  00000+0  27687-3 0  99992 55819  87.9158 309.5367 0001382  91.4917 268.6374 13.19726458155885

JSON: /api/v1/satellites/55819 · /tle

For live sub-satellite position, see the globe view (requires WebGL).

§ Visibility from observer

Set your observer location to see the next 7 days of passes ≥ 10°. The values pass through the URL so the page stays shareable.

No JS? Fill the form by hand. The geolocation button needs JavaScript.